Regional Weather Roundup
Issued by NWS

Home | Current Version | Previous Version | Graphics & Text | Print | Product List | Glossary On
Versions: 1 2 3 4 5 6 7 8 9 10 11 12 13 14 15 16 17 18 19 20 21 22 23 24 25 26 27 28 29 30 31 32 33 34 35 36 37 38 39 40 41 42 43 44 45 46 47 48 49 50
000
ASUS43 KBIS 062310
RWRND

NORTH DAKOTA REGIONAL WEATHER ROUNDUP
NATIONAL WEATHER SERVICE BISMARCK ND
600 PM CDT WED MAY 06 2015

NOTE: "FAIR" INDICATES FEW OR NO CLOUDS BELOW 12,000 FEET WITH NO
SIGNIFICANT WEATHER AND/OR OBSTRUCTIONS TO VISIBILITY.


NDZ001>003-009>011-017-070000-
NORTHWEST NORTH DAKOTA

CITY           SKY/WX    TMP DP  RH WIND       PRES   REMARKS
WILLISTON      LGT RAIN  53  51  93 N21       29.71R
MINOT          RAIN      61  58  90 NW3       29.63S
MINOT AFB      LGT RAIN  61 N/A N/A NW5       29.61F
$$

NDZ018>021-031>035-040>046-070000-
SOUTHWEST NORTH DAKOTA

CITY           SKY/WX    TMP DP  RH WIND       PRES   REMARKS
BISMARCK       CLOUDY    70  59  68 SE15      29.61F
DICKINSON      CLOUDY    60  55  83 N15       29.63S
GARRISON         N/A     63  59  87 NW10      29.62F
HETTINGER ARPT LGT RAIN  59  56  89 NW8       29.64R
$$

NDZ004>008-012>016-024-026-027-054-070000-
NORTHEAST NORTH DAKOTA

CITY           SKY/WX    TMP DP  RH WIND       PRES   REMARKS
GRAND FORKS    LGT RAIN  63  61  93 E12       29.74F
GRND FRKS AFB  LGT RAIN  62  60  95 E9        29.73F FOG
DEVILS LAKE    CLOUDY    61  55  82 SE13      29.70F
$$

NDZ022-023-025-028>030-036>039-047>053-070000-
SOUTHEAST NORTH DAKOTA

CITY           SKY/WX    TMP DP  RH WIND       PRES   REMARKS
FARGO          LGT RAIN  64  59  83 E8        29.71F
JAMESTOWN      LGT RAIN  61  59  93 E16       29.66F FOG
$$



USA.gov is the U.S. government's official web portal to all federal, state and local government web resources and services.